Location: Unspecified
(0.0000°N, 0.0000°E)
Time: 16:27:01
(UTC+00:00)

Vanguard 3 - Pass Details

Date: 24 November 2019
Orbit: 508 x 3263 km, 33.3° (Epoch: 12 December)

Event Time Altitude Azimuth Distance (km) Brightness Sun altitude
Rises 17:19:18 0° 318° (NW) 7,128 12.3 6.4°
Reaches altitude 10° 17:25:59 10° 329° (NNW) 5,858 11.7 4.8°
Maximum altitude 17:38:45 25° 17° (NNE) 3,893 10.3 1.9°
Drops below altitude 10° 17:47:47 10° 68° (ENE) 4,095 10.1 -0.3°
Enters shadow 17:51:15 - 81° (E) 4,667 10.4 -1.1°
Sets 17:51:19 0° 81° (E) 4,679 - -1.1°
